EW9763 Weather Reports


Display with metric or nautical units.
time (UTC)temp
F
wind
direction
speed
MPH
gust
MPH
rain 1hr
in
rain 24hr
in
rain mn
in
humidity
%
barometer
mb
20240712095247 64 151 2.0 3.0 0.00 0.00 0.00 88 1018.7
20240712094747 64 147 1.0 3.0 0.00 0.00 0.00 88 1018.7
20240712094253 65 144 0.0 2.0 0.00 0.00 0.00 88 1018.7
20240712094249 65 144 0.0 2.0 0.00 0.00 0.00 88 1018.7
20240712093247 64 143 0.0 0.0 0.00 0.00 0.00 88 1018.6
20240712092739 64 143 0.0 0.0 0.00 0.00 0.00 87 1018.6
20240712092241 64 143 1.0 3.0 0.00 0.00 0.00 87 1018.5
20240712091740 64 143 2.0 3.0 0.00 0.00 0.00 87 1018.5
20240712091240 64 141 2.0 3.0 0.00 0.00 0.00 87 1018.4
20240712090740 64 140 2.0 3.0 0.00 0.00 0.00 87 1018.4
20240712090237 64 144 2.0 3.0 0.00 0.00 0.00 86 1018.5
20240712085738 64 148 2.0 5.0 0.00 0.00 0.00 86 1018.5
20240712085236 65 148 2.0 5.0 0.00 0.00 0.00 86 1018.6
20240712084734 65 149 2.0 4.0 0.00 0.00 0.00 86 1018.5
20240712084506 65 150 1.0 3.0 0.00 0.00 0.00 86 1018.5
20240712083734 65 151 1.0 3.0 0.00 0.00 0.00 86 1018.5
20240712083235 65 152 1.0 3.0 0.00 0.00 0.00 86 1018.5
20240712083006 65 156 1.0 2.0 0.00 0.00 0.00 86 1018.4
20240712082235 65 156 1.0 2.0 0.00 0.00 0.00 86 1018.4
20240712081735 65 157 1.0 3.0 0.00 0.00 0.00 86 1018.4
20240712081236 65 157 1.0 3.0 0.00 0.00 0.00 86 1018.3
20240712080734 65 156 1.0 3.0 0.00 0.00 0.00 86 1018.4
20240712080235 65 151 1.0 3.0 0.00 0.00 0.00 86 1018.3
20240712075734 65 148 1.0 3.0 0.00 0.00 0.00 86 1018.3
20240712075236 65 148 1.0 5.0 0.00 0.00 0.00 86 1018.3
20240712074730 65 148 0.0 5.0 0.00 0.00 0.00 86 1018.3
20240712074235 66 148 0.0 2.0 0.00 0.00 0.00 85 1018.3
20240712073731 66 148 0.0 2.0 0.00 0.00 0.00 85 1018.4
20240712073230 66 146 1.0 3.0 0.00 0.00 0.00 85 1018.3
20240712072730 66 146 1.0 3.0 0.00 0.00 0.00 85 1018.3
20240712072230 66 147 1.0 3.0 0.00 0.00 0.00 85 1018.3
20240712071727 66 147 1.0 3.0 0.00 0.00 0.00 84 1018.3
20240712071226 66 147 1.0 3.0 0.00 0.00 0.00 84 1018.4
20240712070725 66 148 1.0 3.0 0.00 0.00 0.00 84 1018.5
20240712070226 66 163 1.0 2.0 0.00 0.00 0.00 84 1018.5
20240712065727 66 163 0.0 2.0 0.00 0.00 0.00 84 1018.5
20240712065225 66 163 0.0 2.0 0.00 0.00 0.00 85 1018.5
20240712064728 67 164 1.0 2.0 0.00 0.00 0.00 84 1018.6
20240712064722 67 163 1.0 2.0 0.00 0.00 0.00 85 1018.5
20240712063721 67 164 1.0 2.0 0.00 0.00 0.00 84 1018.6
20240712063223 67 164 1.0 4.0 0.00 0.00 0.00 84 1018.7
20240712062723 67 164 1.0 4.0 0.00 0.00 0.00 84 1018.7
20240712062222 67 163 0.0 4.0 0.00 0.00 0.00 83 1018.7
20240712061719 67 163 0.0 2.0 0.00 0.00 0.00 83 1018.6
20240712061448 67 165 1.0 2.0 0.00 0.00 0.00 82 1018.7
20240712060719 67 165 1.0 2.0 0.00 0.00 0.00 83 1018.8
20240712060218 67 168 1.0 4.0 0.00 0.00 0.00 83 1018.7
20240712055718 67 168 2.0 5.0 0.00 0.00 0.00 83 1018.7
20240712055218 67 174 2.0 5.0 0.00 0.00 0.00 83 1018.7
20240712054949 67 163 1.0 5.0 0.00 0.00 0.00 83 1018.7
20240712054832 67 179 1.0 3.0 0.00 0.00 0.00 83 1018.8
20240712053715 67 179 2.0 5.0 0.00 0.00 0.00 82 1018.8
20240712053212 68 178 2.0 5.0 0.00 0.00 0.00 82 1018.8
20240712052710 68 176 3.0 6.0 0.00 0.00 0.00 82 1018.7
20240712052211 68 170 3.0 6.0 0.00 0.00 0.00 82 1018.7
20240712051710 67 177 3.0 5.0 0.00 0.00 0.00 82 1018.8
20240712051441 67 180 3.0 6.0 0.00 0.00 0.00 82 1018.8
20240712050710 67 164 3.0 8.0 0.00 0.00 0.00 82 1018.8
20240712050209 68 176 4.0 8.0 0.00 0.00 0.00 81 1018.8
20240712045710 68 176 3.0 6.0 0.00 0.00 0.00 81 1018.8
20240712045207 68 153 2.0 6.0 0.00 0.00 0.00 81 1018.8
20240712044708 68 194 2.0 8.0 0.00 0.00 0.00 81 1018.8
20240712044203 68 155 2.0 8.0 0.00 0.00 0.00 81 1018.7
20240712043936 68 153 3.0 8.0 0.00 0.00 0.00 81 1018.7
20240712043436 68 184 2.0 8.0 0.00 0.00 0.00 81 1018.8
20240712042704 68 157 2.0 5.0 0.00 0.00 0.00 81 1018.8
20240712042200 68 136 3.0 5.0 0.00 0.00 0.00 81 1018.8
20240712041701 68 144 3.0 5.0 0.00 0.00 0.00 81 1018.8
20240712041157 68 147 2.0 5.0 0.00 0.00 0.00 81 1018.8
20240712040928 68 142 3.0 5.0 0.00 0.00 0.00 81 1018.8
20240712040157 68 143 2.0 5.0 0.00 0.00 0.00 81 1018.7
20240712035700 68 152 2.0 5.0 0.00 0.00 0.00 81 1018.7
20240712035153 68 162 3.0 6.0 0.00 0.00 0.00 80 1018.7
20240712034652 68 166 3.0 6.0 0.00 0.00 0.00 80 1018.7
20240712034423 69 138 2.0 5.0 0.00 0.00 0.00 80 1018.7
20240712033649 69 148 3.0 9.0 0.00 0.00 0.00 80 1018.6
20240712033421 69 148 3.0 9.0 0.00 0.00 0.00 79 1018.6
20240712032650 69 175 3.0 7.0 0.00 0.00 0.00 79 1018.7
20240712032147 69 121 2.0 7.0 0.00 0.00 0.00 79 1018.7
20240712031919 69 171 3.0 7.0 0.00 0.00 0.00 79 1018.6
20240712031419 69 151 3.0 7.0 0.00 0.00 0.00 78 1018.6
20240712030648 69 128 3.0 7.0 0.00 0.00 0.00 78 1018.6
20240712030418 69 132 3.0 8.0 0.00 0.00 0.00 78 1018.4
20240712025647 70 136 4.0 8.0 0.00 0.00 0.00 78 1018.4
20240712025147 70 134 4.0 8.0 0.00 0.00 0.00 78 1018.4
20240712024911 70 131 3.0 7.0 0.00 0.00 0.00 78 1018.4
20240712024140 70 140 4.0 8.0 0.00 0.00 0.00 77 1018.3
20240712023640 70 136 4.0 8.0 0.00 0.00 0.00 77 1018.3
20240712023140 71 142 4.0 8.0 0.00 0.00 0.00 77 1018.2
20240712022638 71 140 4.0 8.0 0.00 0.00 0.00 77 1018.3
20240712022138 71 134 4.0 9.0 0.00 0.00 0.00 77 1018.2
20240712021638 71 128 4.0 9.0 0.00 0.00 0.00 77 1018.2
20240712021131 71 139 5.0 8.0 0.00 0.00 0.00 76 1018.2
20240712020631 72 150 5.0 9.0 0.00 0.00 0.00 76 1018.2
20240712020133 72 150 5.0 9.0 0.00 0.00 0.00 76 1018.2
20240712015632 72 136 5.0 10.0 0.00 0.00 0.00 75 1018.1
20240712015403 73 131 5.0 10.0 0.00 0.00 0.00 75 1018.1
20240712014631 73 143 5.0 9.0 0.00 0.00 0.00 75 1018.1
20240712014131 73 120 5.0 11.0 0.00 0.00 0.00 75 1018.1
20240712013631 74 132 5.0 11.0 0.00 0.00 0.00 75 1018.1
20240712013127 74 148 6.0 10.0 0.00 0.00 0.00 75 1018.0
20240712012625 74 125 6.0 10.0 0.00 0.00 0.00 74 1018.0
20240712012126 74 136 5.0 10.0 0.00 0.00 0.00 74 1018.0
20240712011624 75 118 5.0 9.0 0.00 0.00 0.00 74 1017.9
20240712011121 75 123 7.0 11.0 0.00 0.00 0.00 73 1017.9
20240712010622 75 124 7.0 12.0 0.00 0.00 0.00 73 1018.0
20240712010122 75 126 7.0 12.0 0.00 0.00 0.00 72 1018.0
20240712005624 76 132 6.0 12.0 0.00 0.00 0.00 73 1018.0
20240712005119 76 121 6.0 10.0 0.00 0.00 0.00 73 1017.9
20240712004615 76 142 4.0 10.0 0.00 0.00 0.00 72 1017.9
20240712004118 77 131 6.0 11.0 0.00 0.00 0.00 72 1017.8
20240712004114 77 136 5.0 9.0 0.00 0.00 0.00 72 1017.9
20240712003115 77 119 6.0 11.0 0.00 0.00 0.00 72 1017.8
20240712002614 77 117 5.0 9.0 0.00 0.00 0.00 72 1017.8
20240712002114 77 138 4.0 8.0 0.00 0.00 0.00 72 1017.8
20240712001608 77 126 4.0 9.0 0.00 0.00 0.00 71 1017.8
20240712001339 78 140 6.0 9.0 0.00 0.00 0.00 72 1017.7
20240712000603 78 141 7.0 12.0 0.00 0.00 0.00 71 1017.6
20240712000103 78 141 8.0 12.0 0.00 0.00 0.00 70 1017.7
20240711235605 79 140 7.0 11.0 0.00 0.00 0.00 70 1017.6
20240711235103 80 130 6.0 11.0 0.00 0.00 0.00 68 1017.6
20240711234833 81 140 3.0 10.0 0.00 0.00 0.00 66 1017.6
20240711234101 81 151 2.0 4.0 0.00 0.00 0.00 53 1017.6
20240711233833 81 178 2.0 4.0 0.00 0.00 0.00 52 1017.6
20240711233058 81 119 1.0 2.0 0.00 0.00 0.00 53 1017.5
20240711232555 81 115 2.0 4.0 0.00 0.00 0.00 52 1017.6
20240711232328 81 115 2.0 4.0 0.00 0.00 0.00 53 1017.6
20240711231555 81 159 2.0 5.0 0.00 0.00 0.00 54 1017.5
20240711231328 81 167 2.0 5.0 0.00 0.00 0.00 51 1017.6
20240711230550 81 159 2.0 5.0 0.00 0.00 0.00 52 1017.6
20240711230049 82 194 2.0 4.0 0.00 0.00 0.00 53 1017.6
20240711225550 82 193 1.0 4.0 0.00 0.00 0.00 52 1017.6
20240711225050 82 194 2.0 4.0 0.00 0.00 0.00 51 1017.6
20240711224548 82 169 2.0 4.0 0.00 0.00 0.00 51 1017.6
20240711224052 83 171 2.0 5.0 0.00 0.00 0.00 51 1017.5
20240711223544 83 159 1.0 5.0 0.00 0.00 0.00 50 1017.6
20240711223043 83 161 1.0 4.0 0.00 0.00 0.00 50 1017.6
20240711222543 83 342 2.0 4.0 0.00 0.00 0.00 49 1017.6
20240711222041 83 344 2.0 4.0 0.00 0.00 0.00 49 1017.6
20240711221542 83 186 2.0 6.0 0.00 0.00 0.00 50 1017.6
20240711221042 82 198 2.0 6.0 0.00 0.00 0.00 52 1017.6
20240711220537 82 196 2.0 5.0 0.00 0.00 0.00 53 1017.6
20240711220036 82 188 3.0 6.0 0.00 0.00 0.00 52 1017.6
20240711215534 82 191 3.0 7.0 0.00 0.00 0.00 52 1017.6
20240711215037 83 183 2.0 7.0 0.00 0.00 0.00 54 1017.7
20240711214535 82 162 2.0 5.0 0.00 0.00 0.00 56 1017.7
20240711214036 82 143 4.0 7.0 0.00 0.00 0.00 54 1017.7
20240711213531 82 166 4.0 7.0 0.00 0.00 0.00 57 1017.7
20240711213031 83 189 3.0 8.0 0.00 0.00 0.00 53 1017.8
20240711212533 83 198 3.0 8.0 0.00 0.00 0.00 54 1017.7
20240711212306 83 178 2.0 5.0 0.00 0.00 0.00 56 1017.8
20240711211533 83 170 2.0 5.0 0.00 0.00 0.00 56 1017.9
20240711211300 83 269 1.0 3.0 0.00 0.00 0.00 54 1017.9
20240711210532 82 277 2.0 5.0 0.00 0.00 0.00 52 1017.9
20240711210025 82 294 2.0 5.0 0.00 0.00 0.00 56 1017.9
20240711205527 82 296 2.0 7.0 0.00 0.00 0.00 53 1018.0
20240711205024 83 344 2.0 7.0 0.00 0.00 0.00 55 1017.9
20240711204524 82 201 1.0 4.0 0.00 0.00 0.00 55 1017.9
20240711204024 82 283 2.0 5.0 0.00 0.00 0.00 57 1018.0
20240711203521 81 317 2.0 5.0 0.00 0.00 0.00 55 1018.1
20240711203249 81 318 2.0 6.0 0.00 0.00 0.00 55 1018.1
20240711202518 82 345 2.0 6.0 0.00 0.00 0.00 54 1018.2
20240711202018 82 25 2.0 7.0 0.00 0.00 0.00 56 1018.2
20240711201523 82 332 2.0 9.0 0.00 0.00 0.00 56 1018.2
20240711201518 82 313 2.0 9.0 0.00 0.00 0.00 57 1018.2
20240711200518 81 25 2.0 4.0 0.00 0.00 0.00 59 1018.2
20240711200020 81 138 2.0 5.0 0.00 0.00 0.00 60 1018.3
20240711195746 81 156 2.0 5.0 0.00 0.00 0.00 59 1018.2
20240711195017 82 185 2.0 5.0 0.00 0.00 0.00 58 1018.4
20240711194743 81 209 1.0 5.0 0.00 0.00 0.00 59 1018.4
20240711194012 80 290 1.0 4.0 0.00 0.00 0.00 63 1018.4
20240711193512 81 159 2.0 6.0 0.00 0.00 0.00 64 1018.4
20240711193011 81 196 2.0 6.0 0.00 0.00 0.00 60 1018.5
20240711192511 81 55 2.0 4.0 0.00 0.00 0.00 61 1018.5
20240711192012 80 302 2.0 5.0 0.00 0.00 0.00 63 1018.6
20240711191508 80 289 2.0 5.0 0.00 0.00 0.00 61 1018.6
20240711191008 80 311 1.0 5.0 0.00 0.00 0.00 63 1018.6
20240711190507 79 17 2.0 6.0 0.00 0.00 0.00 61 1018.6
20240711190240 79 341 5.0 9.0 0.00 0.00 0.00 63 1018.7
20240711185507 79 313 4.0 9.0 0.00 0.00 0.00 62 1018.7
20240711185245 79 323 3.0 9.0 0.00 0.00 0.00 65 1018.7
20240711184504 79 268 3.0 9.0 0.00 0.00 0.00 63 1018.7
20240711184005 79 14 2.0 6.0 0.00 0.00 0.00 68 1018.7
20240711183505 78 44 2.0 5.0 0.00 0.00 0.00 64 1018.7
20240711183004 78 326 2.0 7.0 0.00 0.00 0.00 65 1018.8
20240711182502 78 341 1.0 7.0 0.00 0.00 0.00 64 1018.8
20240711182004 78 150 2.0 5.0 0.00 0.00 0.00 65 1018.8
20240711181500 78 339 3.0 6.0 0.00 0.00 0.00 64 1018.9
20240711180959 79 325 2.0 6.0 0.00 0.00 0.00 65 1018.9
20240711180458 78 19 2.0 5.0 0.00 0.00 0.00 65 1018.9
20240711180000 78 38 1.0 4.0 0.00 0.00 0.00 66 1018.9
20240711175458 78 128 2.0 4.0 0.00 0.00 0.00 67 1018.9
20240711175001 77 112 2.0 4.0 0.00 0.00 0.00 70 1019.0
20240711174729 78 136 1.0 3.0 0.00 0.00 0.00 69 1019.0
20240711173959 77 136 2.0 6.0 0.00 0.00 0.00 67 1019.0
20240711173454 77 136 2.0 6.0 0.00 0.00 0.00 69 1019.0
20240711172952 78 309 1.0 4.0 0.00 0.00 0.00 71 1019.1
20240711172452 77 140 1.0 3.0 0.00 0.00 0.00 72 1019.1
20240711172222 77 138 2.0 5.0 0.00 0.00 0.00 73 1019.1
20240711171721 76 165 1.0 5.0 0.00 0.00 0.00 69 1019.1
20240711170953 77 87 1.0 4.0 0.00 0.00 0.00 68 1019.2
20240711170445 76 329 2.0 7.0 0.00 0.00 0.00 68 1019.2
20240711165945 76 329 2.0 7.0 0.00 0.00 0.00 70 1019.3
20240711165446 75 331 2.0 5.0 0.00 0.00 0.00 69 1019.3
20240711164944 76 349 2.0 5.0 0.00 0.00 0.00 70 1019.3
20240711164715 75 51 1.0 3.0 0.00 0.00 0.00 71 1019.3
20240711163942 75 51 1.0 3.0 0.00 0.00 0.00 72 1019.3
20240711163440 75 31 2.0 4.0 0.00 0.00 0.00 69 1019.3
20240711162938 75 289 2.0 7.0 0.00 0.00 0.00 70 1019.4
20240711162439 75 355 1.0 7.0 0.00 0.00 0.00 70 1019.3
20240711161938 75 315 1.0 4.0 0.00 0.00 0.00 69 1019.3
20240711161711 75 336 2.0 4.0 0.00 0.00 0.00 70 1019.3
20240711160939 75 334 2.0 5.0 0.00 0.00 0.00 70 1019.3
20240711160439 75 329 1.0 5.0 0.00 0.00 0.00 72 1019.3
20240711160207 75 34 1.0 4.0 0.00 0.00 0.00 71 1019.4
20240711155434 75 124 1.0 3.0 0.00 0.00 0.00 69 1019.3
20240711154934 74 116 1.0 3.0 0.00 0.00 0.00 71 1019.3
20240711154441 74 111 2.0 4.0 0.00 0.00 0.00 71 1019.4
20240711154435 74 111 2.0 3.0 0.00 0.00 0.00 71 1019.4
20240711153435 74 111 1.0 4.0 0.00 0.00 0.00 73 1019.4
20240711152937 74 112 1.0 3.0 0.00 0.00 0.00 72 1019.3
20240711152431 74 111 2.0 3.0 0.00 0.00 0.00 72 1019.3
20240711151931 75 114 2.0 3.0 0.00 0.00 0.00 70 1019.2
20240711151429 75 114 1.0 3.0 0.00 0.00 0.00 69 1019.3
20240711151200 75 140 1.0 3.0 0.00 0.00 0.00 75 1019.3
20240711150659 74 138 1.0 3.0 0.00 0.00 0.00 76 1019.3
20240711145928 73 141 2.0 4.0 0.00 0.00 0.00 74 1019.3
20240711145422 73 145 2.0 5.0 0.00 0.00 0.00 75 1019.3
20240711144928 73 165 2.0 6.0 0.00 0.00 0.00 78 1019.3
20240711144923 73 167 3.0 5.0 0.00 0.00 0.00 74 1019.3
20240711143923 72 185 2.0 6.0 0.00 0.00 0.00 76 1019.3
20240711143421 71 96 1.0 3.0 0.00 0.00 0.00 78 1019.3
20240711142919 71 95 2.0 3.0 0.00 0.00 0.00 78 1019.3
20240711142652 71 119 2.0 3.0 0.00 0.00 0.00 79 1019.2
20240711141917 71 119 2.0 3.0 0.00 0.00 0.00 80 1019.2
20240711141414 71 130 1.0 3.0 0.00 0.00 0.00 77 1019.3
20240711140916 71 120 1.0 4.0 0.00 0.00 0.00 78 1019.3
20240711140414 71 121 1.0 4.0 0.00 0.00 0.00 78 1019.3
20240711140147 71 114 1.0 2.0 0.00 0.00 0.00 79 1019.3
20240711135643 71 111 2.0 3.0 0.00 0.00 0.00 80 1019.3
20240711134912 71 94 2.0 3.0 0.00 0.00 0.00 79 1019.2
20240711134414 71 94 2.0 4.0 0.00 0.00 0.00 81 1019.2
20240711133912 70 94 2.0 4.0 0.00 0.00 0.00 81 1019.2
20240711133410 70 96 1.0 4.0 0.00 0.00 0.00 82 1019.1
20240711132909 70 88 1.0 3.0 0.00 0.00 0.00 81 1019.1
20240711132406 69 90 1.0 4.0 0.00 0.00 0.00 83 1019.1
20240711131904 69 91 2.0 4.0 0.00 0.00 0.00 84 1019.0
20240711131638 68 87 2.0 4.0 0.00 0.00 0.00 85 1019.1
20240711130904 68 52 2.0 4.0 0.00 0.00 0.00 86 1019.1
20240711130403 67 328 2.0 5.0 0.00 0.00 0.00 85 1019.1
20240711125904 67 343 2.0 5.0 0.00 0.00 0.00 86 1019.1
20240711125631 67 88 2.0 4.0 0.00 0.00 0.00 87 1019.1
20240711124858 66 51 1.0 4.0 0.00 0.00 0.00 87 1019.0
20240711124356 66 12 2.0 4.0 0.00 0.00 0.00 88 1019.0
20240711123856 65 5 2.0 4.0 0.00 0.00 0.00 88 1019.0
20240711123402 65 17 2.0 7.0 0.00 0.00 0.00 89 1019.0
20240711123356 65 15 2.0 4.0 0.00 0.00 0.00 88 1019.0
20240711122352 65 17 2.0 7.0 0.00 0.00 0.00 89 1018.9
20240711121848 65 40 2.0 4.0 0.00 0.00 0.00 89 1018.9
20240711121348 65 29 2.0 4.0 0.00 0.00 0.00 89 1018.9
20240711120851 64 0 2.0 3.0 0.00 0.00 0.00 89 1018.9
20240711120348 64 351 2.0 4.0 0.00 0.00 0.00 90 1018.8
20240711115848 64 342 2.0 4.0 0.00 0.00 0.00 90 1018.8
20240711115348 64 5 2.0 5.0 0.00 0.00 0.00 90 1018.8
20240711114848 64 324 3.0 5.0 0.00 0.00 0.00 90 1018.7
20240711114348 64 329 3.0 5.0 0.00 0.00 0.00 91 1018.6
20240711114120 64 336 3.0 5.0 0.00 0.00 0.00 91 1018.5
20240711113346 64 320 3.0 5.0 0.00 0.00 0.00 91 1018.5
20240711113116 63 323 3.0 5.0 0.00 0.00 0.00 91 1018.5
20240711112617 64 311 2.0 4.0 0.00 0.00 0.00 92 1018.4
20240711111844 64 333 1.0 3.0 0.00 0.00 0.00 92 1018.3
20240711111342 63 332 2.0 3.0 0.00 0.00 0.00 92 1018.3
20240711110843 64 344 2.0 3.0 0.00 0.00 0.00 92 1018.2
20240711110338 64 348 2.0 3.0 0.00 0.00 0.00 92 1018.1
20240711105838 64 355 2.0 3.0 0.00 0.00 0.00 92 1018.1
20240711105336 64 5 1.0 3.0 0.00 0.00 0.00 92 1018.0
20240711104837 64 13 0.0 3.0 0.00 0.00 0.00 92 1017.9
20240711104335 64 12 1.0 3.0 0.00 0.00 0.00 92 1017.9
20240711104107 64 12 1.0 3.0 0.00 0.00 0.00 92 1017.9
20240711103606 64 15 0.0 3.0 0.00 0.00 0.00 92 1017.8
20240711102832 64 15 0.0 0.0 0.00 0.00 0.00 92 1017.8
20240711102332 64 15 0.0 2.0 0.00 0.00 0.00 91 1017.7
20240711101834 64 15 0.0 2.0 0.00 0.00 0.00 91 1017.7
20240711101331 64 15 0.0 2.0 0.00 0.00 0.00 91 1017.8
20240711100831 64 18 0.0 2.0 0.00 0.00 0.00 91 1017.8
20240711100329 64 18 1.0 2.0 0.00 0.00 0.00 91 1017.8
20240711095826 64 19 1.0 3.0 0.00 0.00 0.00 91 1017.9